CW9790 Weather Reports


Display with metric or nautical units.
time (UTC)temp
F
wind
direction
speed
MPH
gust
MPH
rain 1hr
in
rain 24hr
in
rain mn
in
humidity
%
barometer
mb
20260831134057 75 135 2.0 9.0 0.00 0.00 0.00 92 1014.9
20260831133017 75 135 2.0 7.0 0.00 0.00 0.00 92 1015.0
20260831132017 74 135 2.0 5.0 0.00 0.00 0.00 93 1015.0
20260831131017 74 158 1.0 6.0 0.00 0.00 0.00 93 1015.0
20260831130037 74 135 1.0 5.0 0.00 0.00 0.00 93 1015.0
20260831125017 74 135 1.0 4.0 0.00 0.00 0.00 93 1014.9
20260831124017 74 158 1.0 4.0 0.00 0.00 0.00 93 1014.7
20260831123057 73 158 1.0 6.0 0.00 0.00 0.00 92 1014.9
20260831122017 73 158 1.0 4.0 0.00 0.00 0.00 92 1014.8
20260831121017 74 135 1.0 4.0 0.00 0.00 0.00 92 1014.8
20260831120017 74 158 1.0 4.0 0.00 0.00 0.00 92 1014.7
20260831115037 74 135 1.0 4.0 0.00 0.00 0.00 92 1014.9
20260831114017 74 135 1.0 6.0 0.00 0.00 0.00 91 1014.7
20260831113038 74 158 1.0 6.0 0.00 0.00 0.00 91 1015.0
20260831112017 74 135 1.0 5.0 0.00 0.00 0.00 91 1014.9
20260831111017 74 135 1.0 4.0 0.00 0.00 0.00 91 1015.0
20260831110018 74 135 1.0 6.0 0.00 0.00 0.00 90 1014.9
20260831105017 74 158 1.0 4.0 0.00 0.00 0.00 90 1015.0
20260831104017 74 135 2.0 6.0 0.00 0.00 0.00 90 1015.1
20260831103018 74 158 2.0 4.0 0.00 0.00 0.00 90 1015.1
20260831102017 74 113 2.0 5.0 0.00 0.00 0.00 90 1015.2
20260831101038 74 135 1.0 7.0 0.00 0.00 0.00 89 1015.2
20260831100017 74 135 1.0 6.0 0.00 0.00 0.00 89 1015.1
20260831095017 74 158 2.0 5.0 0.00 0.00 0.00 89 1015.1
20260831094016 74 180 2.0 7.0 0.00 0.00 0.00 88 1014.9
20260831093017 74 135 2.0 10.0 0.00 0.00 0.00 88 1014.8
20260831092017 75 135 2.0 5.0 0.00 0.00 0.00 87 1014.9
20260831091037 75 135 2.0 7.0 0.00 0.00 0.00 87 1014.9
20260831090016 75 135 2.0 6.0 0.00 0.00 0.00 86 1015.0
20260831085017 75 158 2.0 6.0 0.00 0.00 0.00 85 1014.9
20260831084018 75 135 2.0 6.0 0.00 0.00 0.00 85 1015.0
20260831083041 76 113 2.0 6.0 0.00 0.00 0.00 84 1014.9
20260831082037 76 135 2.0 7.0 0.00 0.00 0.00 84 1015.0
20260831081016 76 135 2.0 7.0 0.00 0.00 0.00 82 1015.1
20260831080016 76 135 1.0 7.0 0.00 0.00 0.00 81 1015.1
20260831075016 76 135 2.0 4.0 0.00 0.00 0.00 80 1015.3
20260831074016 76 158 2.0 7.0 0.00 0.00 0.00 80 1015.3
20260831073017 77 135 2.0 7.0 0.00 0.00 0.00 79 1015.4
20260831072016 77 135 2.0 6.0 0.00 0.00 0.00 79 1015.4
20260831071016 77 158 2.0 6.0 0.00 0.00 0.00 78 1015.3
20260831070016 77 135 2.0 6.0 0.00 0.00 0.00 77 1015.2
20260831065017 77 135 1.0 5.0 0.00 0.00 0.00 77 1015.1
20260831064016 77 135 1.0 5.0 0.00 0.00 0.00 77 1015.2
20260831063016 77 158 1.0 4.0 0.00 0.00 0.00 77 1015.2
20260831062016 77 158 1.0 5.0 0.00 0.00 0.00 77 1015.1
20260831061037 77 113 1.0 3.0 0.00 0.00 0.00 76 1015.2
20260831060018 77 0.0 3.0 0.00 0.00 0.00 76 1014.9
20260831055018 77 135 1.0 5.0 0.00 0.00 0.00 77 1014.9
20260831054018 77 0.0 3.0 0.00 0.00 0.00 77 1014.8
20260831053019 76 0.0 2.0 0.00 0.00 0.00 77 1014.5
20260831052038 76 0.0 0.0 0.00 0.00 0.00 76 1014.6
20260831051019 76 0.0 1.0 0.00 0.00 0.00 75 1014.4
20260831050016 77 0.0 1.0 0.00 0.00 0.00 72 1014.3
20260831045018 77 0.0 3.0 0.00 0.00 0.00 72 1014.2
20260831044017 77 0.0 0.0 0.00 0.00 0.00 71 1014.1
20260831043018 77 0.0 0.0 0.00 0.00 0.00 71 1013.9
20260831042017 77 0.0 0.0 0.00 0.00 0.00 70 1013.9
20260831041018 77 0.0 0.0 0.00 0.00 0.00 69 1013.8
20260831040022 78 0.0 0.0 0.00 0.00 0.00 69 1013.6
20260831035058 78 0.0 1.0 0.00 0.00 0.00 68 1013.5
20260831034038 78 0.0 1.0 0.00 0.00 0.00 66 1013.4
20260831033022 79 0.0 0.0 0.00 0.00 0.00 65 1013.1
20260831032017 79 0.0 0.0 0.00 0.00 0.00 65 1013.1
20260831031017 79 0.0 0.0 0.00 0.00 0.00 65 1013.2
20260831030017 80 0.0 0.0 0.00 0.00 0.00 63 1012.8
20260831025017 80 0.0 0.0 0.00 0.00 0.00 62 1012.8
20260831024017 81 0.0 0.0 0.00 0.00 0.00 62 1012.8
20260831023017 81 0.0 0.0 0.00 0.00 0.00 61 1012.6
20260831022037 82 0.0 0.0 0.00 0.00 0.00 60 1012.4
20260831021017 82 0.0 0.0 0.00 0.00 0.00 60 1012.1
20260831020058 83 0.0 0.0 0.00 0.00 0.00 59 1012.0
20260831015017 84 0.0 0.0 0.00 0.00 0.00 56 1011.9
20260831014017 85 0.0 0.0 0.00 0.00 0.00 55 1011.9
20260831013018 85 0.0 0.0 0.00 0.00 0.00 54 1011.9
20260831012020 86 0.0 2.0 0.00 0.00 0.00 53 1011.9
20260831011137 87 0.0 3.0 0.00 0.00 0.00 51 1012.1
20260831010018 88 0.0 2.0 0.00 0.00 0.00 50 1011.9
20260831005017 89 0.0 2.0 0.00 0.00 0.00 48 1012.0
20260831004017 89 0.0 2.0 0.00 0.00 0.00 46 1011.8
20260831003018 90 135 1.0 5.0 0.00 0.00 0.00 45 1011.9
20260831002021 92 135 1.0 6.0 0.00 0.00 0.00 44 1012.0
20260831001017 92 113 1.0 5.0 0.00 0.00 0.00 43 1012.0
20260831000016 93 113 1.0 5.0 0.00 0.00 0.00 42 1012.1
20260830235017 93 113 1.0 4.0 0.00 0.00 0.00 42 1011.9
20260830234037 94 113 2.0 6.0 0.00 0.00 0.00 43 1012.1
20260830233017 94 135 2.0 10.0 0.00 0.00 0.00 41 1012.0
20260830232016 95 90 2.0 6.0 0.00 0.00 0.00 42 1012.0
20260830231102 96 158 2.0 9.0 0.00 0.00 0.00 41 1012.2
20260830230017 96 135 3.0 9.0 0.00 0.00 0.00 41 1012.1
20260830225019 97 135 3.0 10.0 0.00 0.00 0.00 39 1012.1
20260830224037 97 135 2.0 6.0 0.00 0.00 0.00 39 1012.2
20260830223016 97 90 3.0 10.0 0.00 0.00 0.00 39 1012.2
20260830222016 97 135 3.0 12.0 0.00 0.00 0.00 40 1012.2
20260830221016 97 135 2.0 7.0 0.00 0.00 0.00 40 1012.2
20260830220021 97 135 3.0 10.0 0.00 0.00 0.00 39 1012.3
20260830215036 97 135 2.0 13.0 0.00 0.00 0.00 39 1012.4
20260830214037 97 135 3.0 6.0 0.00 0.00 0.00 42 1012.5
20260830213017 97 135 2.0 7.0 0.00 0.00 0.00 39 1012.5
20260830212016 97 135 2.0 6.0 0.00 0.00 0.00 39 1012.8
20260830211036 97 135 2.0 7.0 0.00 0.00 0.00 40 1012.9
20260830210016 97 135 2.0 7.0 0.00 0.00 0.00 39 1013.1
20260830205018 97 135 3.0 10.0 0.00 0.00 0.00 38 1013.2
20260830204018 96 135 3.0 7.0 0.00 0.00 0.00 39 1013.3
20260830203019 97 135 3.0 9.0 0.00 0.00 0.00 42 1013.7
20260830202021 97 113 2.0 7.0 0.00 0.00 0.00 40 1013.7
20260830201019 97 135 2.0 7.0 0.00 0.00 0.00 41 1013.9
20260830200018 96 113 2.0 11.0 0.00 0.00 0.00 42 1014.0
20260830195019 96 135 3.0 10.0 0.00 0.00 0.00 45 1014.2
20260830194039 96 135 3.0 10.0 0.00 0.00 0.00 44 1014.3
20260830193023 96 113 3.0 7.0 0.00 0.00 0.00 43 1014.5
20260830192038 96 135 3.0 10.0 0.00 0.00 0.00 42 1014.5
20260830191019 96 135 2.0 7.0 0.00 0.00 0.00 44 1014.8
20260830190019 96 135 3.0 7.0 0.00 0.00 0.00 44 1015.0
20260830185018 95 135 2.0 6.0 0.00 0.00 0.00 46 1015.0
20260830184039 95 135 3.0 7.0 0.00 0.00 0.00 45 1015.1
20260830183018 94 135 2.0 10.0 0.00 0.00 0.00 46 1015.2
20260830182017 94 135 2.0 8.0 0.00 0.00 0.00 48 1015.5
20260830181018 94 158 3.0 7.0 0.00 0.00 0.00 49 1015.8
20260830180018 94 68 2.0 5.0 0.00 0.00 0.00 50 1015.9
20260830175019 93 135 2.0 7.0 0.00 0.00 0.00 50 1016.0
20260830174021 93 158 2.0 5.0 0.00 0.00 0.00 51 1016.0
20260830173039 92 158 3.0 10.0 0.00 0.00 0.00 52 1016.2
20260830172037 91 135 2.0 7.0 0.00 0.00 0.00 54 1016.1
20260830171022 91 225 3.0 10.0 0.00 0.00 0.00 54 1016.2
20260830170018 91 135 3.0 7.0 0.00 0.00 0.00 54 1016.3
20260830165017 90 158 3.0 12.0 0.00 0.00 0.00 56 1016.4
20260830164018 89 158 3.0 7.0 0.00 0.00 0.00 56 1016.3
20260830163018 88 158 3.0 10.0 0.00 0.00 0.00 59 1016.5
20260830162038 88 135 3.0 9.0 0.00 0.00 0.00 61 1016.5
20260830161018 87 135 3.0 8.0 0.00 0.00 0.00 62 1016.4
20260830160017 86 203 3.0 6.0 0.00 0.00 0.00 65 1016.3
20260830155017 85 158 2.0 6.0 0.00 0.00 0.00 69 1016.3
20260830154017 84 225 2.0 6.0 0.00 0.00 0.00 70 1016.1
20260830153022 83 158 2.0 5.0 0.00 0.00 0.00 73 1016.0
20260830152017 81 135 3.0 9.0 0.00 0.00 0.00 76 1015.9
20260830151017 80 135 2.0 6.0 0.00 0.00 0.00 79 1015.8
20260830150017 79 135 2.0 6.0 0.00 0.00 0.00 82 1015.8
20260830145038 78 158 2.0 6.0 0.00 0.00 0.00 83 1015.6
20260830144017 78 135 3.0 6.0 0.00 0.00 0.00 86 1015.6
20260830143037 77 135 2.0 9.0 0.00 0.00 0.00 87 1015.8
20260830142017 76 135 2.0 6.0 0.00 0.00 0.00 88 1015.8
20260830141018 76 135 3.0 6.0 0.00 0.00 0.00 89 1015.7
20260830140017 75 135 2.0 7.0 0.00 0.00 0.00 91 1015.8
20260830135017 74 113 1.0 4.0 0.00 0.00 0.00 92 1015.5